H1 CPF 2 NER 2023 2 8 9 039 01 glonass143 H2 2007501 9143 46805 2023 2 8 0 0 0 2023 2 11 23 45 0 900 1 1 0 0 0 1 H9 10 0 59983 0.00000 0 9404481.032 -17415221.159 -16078962.906 10 0 59983 900.00000 0 9167739.653 -15308550.302 -18217433.168 10 0 59983 1800.00000 0 9085536.908 -12948793.091 -20001758.250 10 0 59983 2700.00000 0 9188581.469 -10394083.938 -21397284.410 10 0 59983 3600.00000 0 9496721.363 -7708829.515 -22376924.769 10 0 59983 4500.00000 0 10017981.352 -4961238.542 -22921682.630 10 0 59983 5400.00000 0 10748114.331 -2220702.453 -23021016.949 10 0 59983 6300.00000 0 11670685.775 444864.538 -22673043.323 10 0 59983 7200.00000 0 12757687.915 2971615.904 -21884566.994 10 0 59983 8100.00000 0 13970658.020 5302186.876 -20670947.533 10 0 59983 9000.00000 0 15262254.063 7387832.692 -19055797.984 10 0 59983 9900.00000 0 16578221.842 9190203.105 -17070524.336 10 0 59983 10800.00000 0 17859671.161 10682680.491 -14753714.193 10 0 59983 11700.00000 0 19045565.663 11851227.114 -12150386.340 10 0 59983 12600.00000 0 20075321.812 12694707.523 -9311115.662 10 0 59983 13500.00000 0 20891407.807 13224674.065 -6291050.307 10 0 59983 14400.00000 0 21441833.128 13464625.904 -3148840.114 10 0 59983 15300.00000 0 21682423.820 13448774.034 54502.749 10 0 59983 16200.00000 0 21578787.608 13220365.439 3256788.704 10 0 59983 17100.00000 0 21107885.893 12829638.075 6395858.019 10 0 59983 18000.00000 0 20259146.156 12331493.758 9410786.744 10 0 59983 18900.00000 0 19035067.625 11782987.803 12243067.778 10 0 59983 19800.00000 0 17451294.277 11240741.804 14837744.108 10 0 59983 20700.00000 0 15536151.569 10758388.990 17144472.309 10 0 59983 21600.00000 0 13329665.653 10384160.024 19118495.940 10 0 59983 22500.00000 0 10882105.312 10158711.022 20721510.347 10 0 59983 23400.00000 0 8252106.669 10113285.269 21922402.581 10 0 59983 24300.00000 0 5504457.874 10268286.018 22697852.600 10 0 59983 25200.00000 0 2707634.941 10632320.502 23032784.572 10 0 59983 26100.00000 0 -68809.864 11201755.618 22920659.865 10 0 59983 27000.00000 0 -2756899.673 11960804.380 22363606.181 10 0 59983 27900.00000 0 -5292815.683 12882140.159 21372380.244 10 0 59983 28800.00000 0 -7619304.510 13928013.672 19966164.434 10 0 59983 29700.00000 0 -9687811.138 15051826.660 18172200.756 10 0 59983 30600.00000 0 -11460249.543 16200096.989 16025268.555 10 0 59983 31500.00000 0 -12910337.927 17314733.288 13567015.332 10 0 59983 32400.00000 0 -14024443.489 18335523.998 10845152.958 10 0 59983 33300.00000 0 -14801902.032 19202736.327 7912534.238 10 0 59983 34200.00000 0 -15254799.579 19859715.579 4826127.443 10 0 59983 35100.00000 0 -15407225.827 20255374.952 1645908.589 10 0 59983 36000.00000 0 -15294031.505 20346470.186 -1566306.867 10 0 59983 36900.00000 0 -14959142.763 20099562.228 -4748069.745 10 0 59983 37800.00000 0 -14453504.545 19492584.173 -7837516.243 10 0 59983 38700.00000 0 -13832740.645 18515945.317 -10774576.031 10 0 59983 39600.00000 0 -13154630.213 17173124.810 -13502145.083 10 0 59983 40500.00000 0 -12476508.173 15480728.937 -15967199.859 10 0 59983 41400.00000 0 -11852700.130 13468008.758 -18121830.732 10 0 59983 42300.00000 0 -11332100.693 11175857.654 -19924174.305 10 0 59983 43200.00000 0 -10955997.866 8655330.119 -21339226.534 10 0 59983 44100.00000 0 -10756235.476 5965743.211 -22339521.049 10 0 59983 45000.00000 0 -10753791.223 3172439.434 -22905659.869 10 0 59983 45900.00000 0 -10957830.144 344303.796 -23026686.657 10 0 59983 46800.00000 0 -11365273.235 -2448862.149 -22700295.759 10 0 59983 47700.00000 0 -11960899.218 -5139000.640 -21932873.343 10 0 59983 48600.00000 0 -12717975.036 -7662382.572 -20739370.195 10 0 59983 49500.00000 0 -13599388.457 -9962010.290 -19143008.772 10 0 59983 50400.00000 0 -14559235.121 -11989739.300 -17174830.244 10 0 59983 51300.00000 0 -15544793.257 -13708031.696 -14873090.255 10 0 59983 52200.00000 0 -16498803.003 -15091269.398 -12282514.951 10 0 59983 53100.00000 0 -17361954.384 -16126573.633 -9453431.604 10 0 59983 54000.00000 0 -18075479.134 -16814097.703 -6440790.610 10 0 59983 54900.00000 0 -18583737.087 -17166782.106 -3303097.768 10 0 59983 55800.00000 0 -18836687.968 -17209583.537 -101277.710 10 0 59983 56700.00000 0 -18792144.167 -16978211.381 3102509.335 10 0 59983 57600.00000 0 -18417709.235 -16517425.940 6246074.269 10 0 59983 58500.00000 0 -17692320.040 -15878970.969 9268405.667 10 0 59983 59400.00000 0 -16607327.174 -15119228.368 12110852.579 10 0 59983 60300.00000 0 -15167067.598 -14296694.398 14718260.601 10 0 59983 61200.00000 0 -13388904.799 -13469384.091 17040039.217 10 0 59983 62100.00000 0 -11302733.994 -12692273.308 19031139.991 10 0 59983 63000.00000 0 -8949972.153 -12014886.085 20652927.031 10 0 59983 63900.00000 0 -6382074.079 -11479128.646 21873923.298 10 0 59983 64800.00000 0 -3658635.290 -11117460.927 22670418.840 10 0 59983 65700.00000 0 -845159.539 -10951482.255 23026929.612 10 0 59983 66600.00000 0 1989417.387 -10990990.510 22936498.344 10 0 59983 67500.00000 0 4775345.896 -11233554.268 22400831.750 10 0 59983 68400.00000 0 7444715.318 -11664616.120 21430271.358 10 0 59983 69300.00000 0 9934031.968 -12258123.154 20043598.178 10 0 59983 70200.00000 0 12186616.401 -12977658.616 18267674.463 10 0 59983 71100.00000 0 14154720.994 -13778027.706 16136928.798 10 0 59983 72000.00000 0 15801280.306 -14607231.326 13692693.766 10 0 59983 72900.00000 0 17101221.783 -15408745.099 10982408.309 10 0 59983 73800.00000 0 18042282.538 -16124007.839 8058699.662 10 0 59983 74700.00000 0 18625298.433 -16695014.511 4978362.324 10 0 59983 75600.00000 0 18863953.822 -17066903.927 1801253.788 10 0 59983 76500.00000 0 18784002.986 -17190431.364 -1410871.396 10 0 59983 77400.00000 0 18421996.643 -17024220.807 -4595566.099 10 0 59983 78300.00000 0 17823567.880 -16536700.738 -7690909.657 10 0 59983 79200.00000 0 17041350.590 -15707640.596 -10636717.062 10 0 59983 80100.00000 0 16132619.030 -14529221.956 -13375714.068 10 0 59983 81000.00000 0 15156748.943 -13006598.147 -15854654.729 10 0 59983 81900.00000 0 14172608.070 -11157917.709 -18025359.213 10 0 59983 82800.00000 0 13235986.711 -9013809.746 -19845651.436 10 0 59983 83700.00000 0 12397177.048 -6616351.903 -21280178.308 10 0 59983 84600.00000 0 11698803.364 -4017563.406 -22301094.867 10 0 59983 85500.00000 0 11173994.502 -1277485.453 -22888602.361 10 0 59984 0.00000 0 10844975.211 1538071.369 -23031329.303 10 0 59984 900.00000 0 10722135.130 4360020.988 -22726548.553 10 0 59984 1800.00000 0 10803614.458 7118630.163 -21980226.569 10 0 59984 2700.00000 0 11075422.652 9746177.635 -20806904.415 10 0 59984 3600.00000 0 11512085.163 12179530.603 -19229412.723 10 0 59984 4500.00000 0 12077790.371 14362533.671 -17278426.327 10 0 59984 5400.00000 0 12727988.142 16248111.523 -14991867.122 10 0 59984 6300.00000 0 13411372.397 17799998.723 -12414166.561 10 0 59984 7200.00000 0 14072163.951 18994025.499 -9595402.008 10 0 59984 8100.00000 0 14652597.151 19818906.906 -6590323.568 10 0 59984 9000.00000 0 15095505.221 20276503.481 -3457290.269 10 0 59984 9900.00000 0 15346894.971 20381543.570 -257136.340 10 0 59984 10800.00000 0 15358401.928 20160820.117 2948010.268 10 0 59984 11700.00000 0 15089521.924 19651896.650 6095933.986 10 0 59984 12600.00000 0 14509524.577 18901377.809 9125538.700 10 0 59984 13500.00000 0 13598967.486 17962817.940 11978032.220 10 0 59984 14400.00000 0 12350746.764 16894356.300 14598065.127 10 0 59984 15300.00000 0 10770638.987 15756178.768 16934801.935 10 0 59984 16200.00000 0 8877310.966 14607912.949 18942904.058 10 0 59984 17100.00000 0 6701795.889 13506066.126 20583405.918 10 0 59984 18000.00000 0 4286456.702 12501613.474 21824467.635 10 0 59984 18900.00000 0 1683478.722 11637837.460 22641990.259 10 0 59984 19800.00000 0 -1047046.948 10948508.673 23020082.088 10 0 59984 20700.00000 0 -3839370.786 10456484.022 22951367.358 10 0 59984 21600.00000 0 -6624570.875 10172780.736 22437131.508 10 0 59984 22500.00000 0 -9333175.559 10096164.838 21487300.108 10 0 59984 23400.00000 0 -11897814.920 10213271.253 20120251.556 10 0 59984 24300.00000 0 -14255791.882 10499250.614 18362466.637 10 0 59984 25200.00000 0 -16351466.836 10918915.726 16248021.052 10 0 59984 26100.00000 0 -18138357.146 11428339.731 13817929.978 10 0 59984 27000.00000 0 -19580864.425 11976838.830 11119356.698 10 0 59984 27900.00000 0 -20655557.846 12509256.111 8204699.984 10 0 59984 28800.00000 0 -21351959.987 12968449.996 5130577.620 10 0 59984 29700.00000 0 -21672802.574 13297881.924 1956725.644 10 0 59984 30600.00000 0 -21633741.674 13444193.345 -1255165.161 10 0 59984 31500.00000 0 -21262544.665 13359662.293 -4442652.488 10 0 59984 32400.00000 0 -20597783.724 13004434.705 -7543761.454 10 0 59984 33300.00000 0 -19687091.473 12348435.038 -10498194.890 10 0 59984 34200.00000 0 -18585052.961 11372874.319 -13248510.662 10 0 59984 35100.00000 0 -17350823.570 10071290.772 -15741242.534 10 0 59984 36000.00000 0 -16045573.871 8450078.022 -17927942.315 10 0 59984 36900.00000 0 -14729869.643 6528477.544 -19766122.760 10 0 59984 37800.00000 0 -13461097.705 4338034.680 -21220082.891 10 0 59984 38700.00000 0 -12291045.990 1921540.072 -22261599.935 10 0 59984 39600.00000 0 -11263739.525 -668500.037 -22870474.756 10 0 59984 40500.00000 0 -10413622.880 -3371801.541 -23034920.676 10 0 59984 41400.00000 0 -9764164.871 -6122568.222 -22751788.617 10 0 59984 42300.00000 0 -9326943.411 -8851991.839 -22026624.594 10 0 59984 43200.00000 0 -9101248.143 -11490883.238 -20873558.784 10 0 59984 44100.00000 0 -9074216.698 -13972325.779 -19315028.478 10 0 59984 45000.00000 0 -9221498.065 -16234241.365 -17381340.350 10 0 59984 45900.00000 0 -9508414.447 -18221763.067 -15110080.465 10 0 59984 46800.00000 0 -9891572.020 -19889316.282 -12545383.317 10 0 59984 47700.00000 0 -10320852.202 -21202322.405 -9737073.950 10 0 59984 48600.00000 0 -10741698.967 -22138454.776 -6739699.715 10 0 59984 49500.00000 0 -11097605.286 -22688395.221 -3611470.378 10 0 59984 50400.00000 0 -11332693.277 -22856060.422 -413127.281 10 0 59984 51300.00000 0 -11394278.735 -22658289.526 2793236.368 10 0 59984 52200.00000 0 -11235311.291 -22124006.979 5945380.981 10 0 59984 53100.00000 0 -10816586.694 -21292896.558 8982128.178 10 0 59984 54000.00000 0 -10108637.368 -20213643.004 11844546.915 10 0 59984 54900.00000 0 -9093220.915 -18941815.724 14477095.046 10 0 59984 55800.00000 0 -7764343.161 -17537483.819 16828694.258 10 0 59984 56700.00000 0 -6128771.936 -16062662.796 18853717.749 10 0 59984 57600.00000 0 -4206018.971 -14578700.027 20512871.891 10 0 59984 58500.00000 0 -2027789.601 -13143708.420 21773955.256 10 0 59984 59400.00000 0 363078.042 -11810155.411 22612480.805 10 0 59984 60300.00000 0 2914141.413 -10622707.746 23012149.672 10 0 59984 61200.00000 0 5565287.267 -9616421.713 22965167.690 10 0 59984 62100.00000 0 8250991.619 -8815354.020 22472398.721 10 0 59984 63000.00000 0 10902813.367 -8231650.926 21543351.715 10 0 59984 63900.00000 0 13452019.093 -7865153.406 20196001.469 10 0 59984 64800.00000 0 15832230.981 -7703534.577 18456446.012 10 0 59984 65700.00000 0 17981988.539 -7722963.423 16358406.565 10 0 59984 66600.00000 0 19847118.018 -7889266.831 13942579.046 10 0 59984 67500.00000 0 21382811.140 -8159540.949 11255848.928 10 0 59984 68400.00000 0 22555326.541 -8484143.849 8350384.099 10 0 59984 69300.00000 0 23343242.822 -8808985.204 5282622.937 10 0 59984 70200.00000 0 23738210.754 -9078015.880 2112177.133 10 0 59984 71100.00000 0 23745173.114 -9235811.654 -1099329.345 10 0 59984 72000.00000 0 23382043.035 -9230140.978 -4289462.097 10 0 59984 72900.00000 0 22678854.623 -9014407.229 -7396195.053 10 0 59984 73800.00000 0 21676421.950 -8549861.041 -10359121.737 10 0 59984 74700.00000 0 20424563.355 -7807488.022 -13120634.742 10 0 59984 75600.00000 0 18979966.372 -6769490.886 -15627049.854 10 0 59984 76500.00000 0 17403783.671 -5430302.290 -17829652.500 10 0 59984 77400.00000 0 15759061.662 -3797084.533 -19685645.911 10 0 59984 78300.00000 0 14108110.207 -1889694.042 -21158982.527 10 0 59984 79200.00000 0 12509924.027 259888.927 -22221062.716 10 0 59984 80100.00000 0 11017763.985 2608642.387 -22851287.571 10 0 59984 81000.00000 0 9676999.305 5104052.148 -23037455.499 10 0 59984 81900.00000 0 8523300.573 7686064.925 -22775995.417 10 0 59984 82800.00000 0 7581258.452 10289364.327 -22072032.422 10 0 59984 83700.00000 0 6863485.017 12845875.623 -20939285.012 10 0 59984 84600.00000 0 6370234.318 15287395.717 -19399796.013 10 0 59984 85500.00000 0 6089556.983 17548239.438 -17483502.487 10 0 59985 0.00000 0 5997981.292 19567792.411 -15227653.122 10 0 59985 900.00000 0 6061691.068 21292865.745 -12676082.969 10 0 59985 1800.00000 0 6238149.966 22679752.278 -9878362.582 10 0 59985 2700.00000 0 6478102.760 23695902.688 -6888833.929 10 0 59985 3600.00000 0 6727868.673 24321149.283 -3765554.669 10 0 59985 4500.00000 0 6931829.224 24548427.971 -569170.243 10 0 59985 5400.00000 0 7035004.984 24383968.646 2638263.974 10 0 59985 6300.00000 0 6985611.833 23846946.664 5794487.458 10 0 59985 7200.00000 0 6737488.236 22968610.631 8838242.556 10 0 59985 8100.00000 0 6252290.494 21790923.722 11710462.171 10 0 59985 9000.00000 0 5501362.779 20364775.981 14355414.019 10 0 59985 9900.00000 0 4467202.479 18747842.941 16721779.266 10 0 59985 10800.00000 0 3144458.387 17002180.517 18763644.893 10 0 59985 11700.00000 0 1540418.904 15191656.855 20441390.915 10 0 59985 12600.00000 0 -325031.290 13379328.458 21722455.704 10 0 59985 13500.00000 0 -2419985.526 11624869.894 22581965.117 10 0 59985 14400.00000 0 -4701597.707 9982163.958 23003213.716 10 0 59985 15300.00000 0 -7117629.419 8497152.310 22977989.097 10 0 59985 16200.00000 0 -9608398.553 7206035.655 22506733.237 10 0 59985 17100.00000 0 -12109049.754 6133897.913 21598537.667 10 0 59985 18000.00000 0 -14552053.434 5293811.268 20270972.268 10 0 59985 18900.00000 0 -16869830.526 4686458.915 18549750.494 10 0 59985 19800.00000 0 -18997394.538 4300290.816 16468236.816 10 0 59985 20700.00000 0 -20874901.440 4112205.534 14066805.208 10 0 59985 21600.00000 0 -22450001.365 4088729.123 11392060.354 10 0 59985 22500.00000 0 -23679894.022 4187641.092 8495936.078 10 0 59985 23400.00000 0 -24533001.746 4359978.544 5434688.096 10 0 59985 24300.00000 0 -24990189.917 4552333.347 2267800.493 10 0 59985 25200.00000 0 -25045483.336 4709344.675 -943172.735 10 0 59985 26100.00000 0 -24706248.295 4776280.681 -4135808.121 10 0 59985 27000.00000 0 -23992832.589 4701599.151 -7248031.256 10 0 59985 27900.00000 0 -22937678.691 4439377.695 -10219329.024 10 0 59985 28800.00000 0 -21583947.586 3951509.559 -12991931.186 10 0 59985 29700.00000 0 -19983711.487 3209571.036 -15511937.729 10 0 59985 30600.00000 0 -18195791.793 2196280.441 -17730369.573 10 0 59985 31500.00000 0 -16283333.529 906486.011 -19604121.922 10 0 59985 32400.00000 0 -14311218.369 -652359.981 -21096801.701 10 0 59985 33300.00000 0 -12343424.883 -2460261.813 -22179433.032 10 0 59985 34200.00000 0 -10440446.535 -4485274.033 -22831017.349 10 0 59985 35100.00000 0 -8656875.201 -6684604.314 -23038937.786 10 0 59985 36000.00000 0 -7039250.704 -9006180.204 -22799200.446 10 0 59985 36900.00000 0 -5624265.506 -11390615.071 -22116508.287 10 0 59985 37800.00000 0 -4437398.590 -13773491.970 -21004166.542 10 0 59985 38700.00000 0 -3492034.502 -16087870.870 -19483821.679 10 0 59985 39600.00000 0 -2789103.162 -18266915.285 -17585039.000 10 0 59985 40500.00000 0 -2317254.219 -20246529.352 -15344727.042 10 0 59985 41400.00000 0 -2053557.356 -21967895.827 -12806419.762 10 0 59985 42300.00000 0 -1964697.888 -23379809.434 -10019430.319 10 0 59985 43200.00000 0 -2008616.240 -24440708.501 -7037892.755 10 0 59985 44100.00000 0 -2136521.220 -25120320.256 -3919710.105 10 0 59985 45000.00000 0 -2295191.308 -25400851.278 -725429.467 10 0 59985 45900.00000 0 -2429466.000 -25277673.604 2482934.006 10 0 59985 46800.00000 0 -2484821.354 -24759478.109 5643101.162 10 0 59985 47700.00000 0 -2409920.275 -23867889.139 8693737.302 10 0 59985 48600.00000 0 -2159029.288 -22636556.884 11575641.435 10 0 59985 49500.00000 0 -1694199.213 -21109765.894 14232893.170 10 0 59985 50400.00000 0 -987117.197 -19340618.246 16613935.039 10 0 59985 51300.00000 0 -20551.419 -17388867.521 18672569.482 10 0 59985 52200.00000 0 1210673.058 -15318494.128 20368851.561 10 0 59985 53100.00000 0 2699209.171 -13195123.056 21669860.540 10 0 59985 54000.00000 0 4425254.064 -11083391.460 22550335.902 10 0 59985 54900.00000 0 6357145.049 -9044375.258 22993165.990 10 0 59985 55800.00000 0 8452461.772 -7133181.402 22989720.134 10 0 59985 56700.00000 0 10659589.955 -5396805.330 22540018.040 10 0 59985 57600.00000 0 12919682.968 -3872342.124 21652733.098 10 0 59985 58500.00000 0 15168940.746 -2585625.170 20345029.242 10 0 59985 59400.00000 0 17341112.255 -1550348.379 18642234.047 10 0 59985 60300.00000 0 19370118.151 -767707.959 16577353.680 10 0 59985 61200.00000 0 21192684.851 -226578.120 14190438.371 10 0 59985 62100.00000 0 22750880.398 95787.246 11527809.982 10 0 59985 63000.00000 0 23994446.221 232556.953 8641166.008 10 0 59985 63900.00000 0 24882826.979 225679.931 5586577.011 10 0 59985 64800.00000 0 25386813.098 123867.555 2423396.792 10 0 59985 65700.00000 0 25489726.643 -19713.196 -786893.442 10 0 59985 66600.00000 0 25188100.253 -149937.423 -3981884.039 10 0 59985 67500.00000 0 24491820.227 -212304.245 -7099455.099 10 0 59985 68400.00000 0 23423727.493 -155492.690 -10078989.579 10 0 59985 69300.00000 0 22018693.114 66217.689 -12862556.902 10 0 59985 70200.00000 0 20322207.235 490764.970 -15396043.477 10 0 59985 71100.00000 0 18388540.889 1146455.101 -17630207.629 10 0 59985 72000.00000 0 16278558.028 2050523.351 -19521638.141 10 0 59985 72900.00000 0 14057269.697 3208168.627 -21033597.737 10 0 59985 73800.00000 0 11791232.861 4612102.220 -22136735.329 10 0 59985 74700.00000 0 9545902.681 6242630.841 -22809653.474 10 0 59985 75600.00000 0 7383048.573 8068271.234 -23039320.535 10 0 59985 76500.00000 0 5358341.467 10046871.459 -22821320.006 10 0 59985 77400.00000 0 3519212.204 12127192.588 -22159932.599 10 0 59985 78300.00000 0 1903069.483 14250885.425 -21068049.835 10 0 59985 79200.00000 0 535950.524 16354780.282 -19566921.003 10 0 59985 80100.00000 0 -568340.455 18373394.740 -17685738.470 10 0 59985 81000.00000 0 -1408571.372 20241555.138 -15461069.293 10 0 59985 81900.00000 0 -1995886.259 21897022.672 -12936144.028 10 0 59985 82800.00000 0 -2353083.732 23283014.625 -10160016.404 10 0 59985 83700.00000 0 -2513401.585 24350515.497 -7186610.013 10 0 59985 84600.00000 0 -2518859.924 25060281.473 -4073670.507 10 0 59985 85500.00000 0 -2418233.720 25384454.377 -881643.681 10 0 59986 0.00000 0 -2264741.313 25307717.644 2327498.311 10 0 59986 900.00000 0 -2113547.189 24827945.803 5491461.370 10 0 59986 1800.00000 0 -2019185.411 23956320.591 8548836.528 10 0 59986 2700.00000 0 -2033012.888 22716908.801 11440291.840 10 0 59986 3600.00000 0 -2200800.717 21145719.635 14109721.578 10 0 59986 4500.00000 0 -2560565.674 19289281.139 16505332.173 10 0 59986 5400.00000 0 -3140733.792 17202795.172 18580643.802 10 0 59986 6300.00000 0 -3958713.912 14947947.838 20295388.564 10 0 59986 7200.00000 0 -5019941.862 12590466.458 21616288.274 10 0 59986 8100.00000 0 -6317436.225 10197524.466 22517697.350 10 0 59986 9000.00000 0 -7831885.322 7835101.671 22982098.837 10 0 59986 9900.00000 0 -9532262.879 5565409.072 23000444.276 10 0 59986 10800.00000 0 -11376947.913 3444484.519 22572331.102 10 0 59986 11700.00000 0 -13315303.357 1520058.363 21706014.033 10 0 59986 12600.00000 0 -15289648.789 -170222.895 20418249.995 10 0 59986 13500.00000 0 -17237546.081 -1600141.836 18733979.075 10 0 59986 14400.00000 0 -19094303.526 -2755768.938 16685847.005 10 0 59986 15300.00000 0 -20795594.537 -3635799.803 14313577.681 10 0 59986 16200.00000 0 -22280081.829 -4251357.418 11663207.174 10 0 59986 17100.00000 0 -23491937.400 -4625268.398 8786193.396 10 0 59986 18000.00000 0 -24383152.471 -4790844.307 5738418.337 10 0 59986 18900.00000 0 -24915540.107 -4790220.065 2579102.029 10 0 59986 19800.00000 0 -25062345.819 -4672320.308 -630350.576 10 0 59986 20700.00000 0 -24809397.778 -4490540.418 -3827546.997 10 0 59986 21600.00000 0 -24155747.645 -4300241.210 -6950325.058 10 0 59986 22500.00000 0 -23113774.459 -4156164.252 -9937966.808 10 0 59986 23400.00000 0 -21708746.796 -4109878.221 -12732384.134 10 0 59986 24300.00000 0 -19977861.297 -4207365.359 -15279252.388 10 0 59986 25200.00000 0 -17968797.816 -4486851.078 -17529069.486 10 0 59986 26100.00000 0 -15737851.740 -4976969.341 -19438119.569 10 0 59986 27000.00000 0 -13347721.766 -5695342.078 -20969322.468 10 0 59986 27900.00000 0 -10865045.650 -6647633.287 -22092952.645 10 0 59986 28800.00000 0 -8357786.818 -7827118.322 -22787213.975 10 0 59986 29700.00000 0 -5892580.628 -9214787.114 -23038659.679 10 0 59986 30600.00000 0 -3532150.478 -10779977.633 -22842449.743 10 0 59986 31500.00000 0 -1332900.766 -12481513.588 -22202441.252 10 0 59986 32400.00000 0 657213.898 -14269299.293 -21131110.227 10 0 59986 33300.00000 0 2400455.582 -16086305.487 -19649306.671 10 0 59986 34200.00000 0 3870633.554 -17870863.446 -17785847.629 10 0 59986 35100.00000 0 5053944.337 -19559171.829 -15576956.100 10 0 59986 36000.00000 0 5949287.651 -21087911.661 -13065556.516 10 0 59986 36900.00000 0 6568046.495 -22396860.159 -10300440.355 10 0 59986 37800.00000 0 6933342.063 -23431394.045 -7335317.907 10 0 59986 38700.00000 0 7078796.200 -24144777.455 -4227774.579 10 0 59986 39600.00000 0 7046854.720 -24500138.446 -1038152.053 10 0 59986 40500.00000 0 6886743.404 -24472051.102 2171623.813 10 0 59986 41400.00000 0 6652143.853 -24047656.752 5339245.419 10 0 59986 42300.00000 0 6398688.131 -23227277.126 8403232.556 10 0 59986 43200.00000 0 6181378.659 -22024493.598 11304124.584 10 0 59986 44100.00000 0 6052042.814 -20465689.060 13985632.476 10 0 59986 45000.00000 0 6056930.098 -18589071.397 16395728.345 10 0 59986 45900.00000 0 6234553.586 -16443219.168 18487651.581 10 0 59986 46800.00000 0 6613866.934 -14085209.874 20220812.447 10 0 59986 47700.00000 0 7212854.134 -11578408.439 21561576.072 10 0 59986 48600.00000 0 8037591.747 -8990007.465 22483912.191 10 0 59986 49500.00000 0 9081823.715 -6388420.870 22969898.519 10 0 59986 50400.00000 0 10327067.369 -3840638.510 23010068.415 10 0 59986 51300.00000 0 11743247.198 -1409650.823 22603596.288 10 0 59986 52200.00000 0 13289830.955 847950.451 21758317.127 10 0 59986 53100.00000 0 14917421.702 2884096.631 20490579.519 10 0 59986 54000.00000 0 16569740.321 4661004.085 18824934.506 10 0 59986 54900.00000 0 18185916.527 6152501.326 16793665.619 10 0 59986 55800.00000 0 19702993.240 7344866.618 14436168.496 10 0 59986 56700.00000 0 21058539.934 8237141.837 11798191.313 10 0 59986 57600.00000 0 22193265.554 8840910.164 8930950.156 10 0 59986 58500.00000 0 23053521.231 9179547.604 5890136.050 10 0 59986 59400.00000 0 23593587.212 9286980.549 2734832.753 10 0 59986 60300.00000 0 23777647.248 9206002.487 -473633.616 10 0 59986 61200.00000 0 23581366.543 8986221.722 -3672890.347 10 0 59986 62100.00000 0 22993006.031 8681727.702 -6800735.529 10 0 59986 63000.00000 0 22014025.242 8348575.576 -9796352.709 10 0 59986 63900.00000 0 20659147.649 8042196.365 -12601498.440 10 0 59986 64800.00000 0 18955885.146 7814843.237 -15161638.969 10 0 59986 65700.00000 0 16943541.151 7713182.786 -17427013.485 10 0 59986 66600.00000 0 14671733.840 7776133.906 -19353602.910 10 0 59986 67500.00000 0 12198501.113 8033046.189 -20903985.361 10 0 59986 68400.00000 0 9588066.349 8502295.289 -22048061.834 10 0 59986 69300.00000 0 6908358.039 9190354.874 -22763638.305 10 0 59986 70200.00000 0 4228386.436 10091384.653 -23036853.442 10 0 59986 71100.00000 0 1615586.046 11187352.156 -22862444.073 10 0 59986 72000.00000 0 -866766.000 12448683.485 -22243843.740 10 0 59986 72900.00000 0 -3161949.076 13835416.083 -21193112.717 10 0 59986 73800.00000 0 -5221916.842 15298805.514 -19730701.112 10 0 59986 74700.00000 0 -7009046.631 16783319.209 -17885049.663 10 0 59986 75600.00000 0 -8497448.834 18228933.854 -15692035.940 10 0 59986 76500.00000 0 -9673783.062 19573640.362 -13194276.538 10 0 59986 77400.00000 0 -10537548.371 20756051.440 -10440298.648 10 0 59986 78300.00000 0 -11100836.919 21718002.393 -7483596.961 10 0 59986 79200.00000 0 -11387562.783 22407035.938 -4381594.134 10 0 59986 80100.00000 0 -11432199.715 22778666.482 -1194525.072 10 0 59986 81000.00000 0 -11278082.183 22798328.549 2015733.152 10 0 59986 81900.00000 0 -10975342.389 22442927.219 5186862.852 10 0 59986 82800.00000 0 -10578571.176 21701925.132 8257315.127 10 0 59986 83700.00000 0 -10144302.286 20577920.115 11167503.456 10 0 59986 84600.00000 0 -9728426.668 19086688.789 13860958.235 10 0 59986 85500.00000 0 -9383646.380 17256693.957 16285419.855 99